EW2941 Weather Reports


time (UTC)temp
F
wind
direction
speed
knots
gust
knots
rain 1hr
in
rain 24hr
in
rain mn
in
humidity
%
barometer
mb
20260510153023 81 172 0.0 1.7 0.00 0.00 0.00 51 1012.5
20260510151614 81 253 0.0 1.7 0.00 0.00 0.00 50 1012.5
20260510150040 79 345 0.0 1.7 0.00 0.00 0.00 54 1012.5
20260510144514 78 358 0.0 1.7 0.00 0.00 0.00 56 1012.5
20260510143106 77 39 0.0 0.9 0.00 0.00 0.00 55 1012.4
20260510141525 76 343 0.0 0.0 0.00 0.00 0.00 59 1012.3
20260510140059 74 331 0.0 0.0 0.00 0.00 0.00 59 1012.3
20260510134534 73 330 0.0 0.0 0.00 0.00 0.00 65 1012.2
20260510133013 71 330 0.0 0.0 0.00 0.00 0.00 67 1012.1
20260510131553 69 332 0.0 0.0 0.00 0.00 0.00 71 1012.1
20260510130025 68 331 0.0 0.0 0.00 0.00 0.00 73 1012.2
20260510124505 66 332 0.0 0.0 0.00 0.00 0.00 76 1012.4
20260510123044 64 331 0.0 0.0 0.00 0.00 0.00 79 1012.2
20260510121517 62 332 0.0 0.0 0.00 0.00 0.00 84 1011.9
20260510120052 60 331 0.0 0.0 0.00 0.00 0.00 89 1011.9
20260510114531 57 331 0.0 0.0 0.00 0.00 0.00 94 1011.5
20260510113012 55 331 0.0 0.0 0.00 0.00 0.00 96 1011.5
20260510111540 54 331 0.0 0.0 0.00 0.00 0.00 96 1011.4
20260510110023 53 332 0.0 0.0 0.00 0.00 0.00 96 1011.2
20260510104601 52 331 0.0 0.0 0.00 0.00 0.00 96 1011.0
20260510103042 51 331 0.0 0.0 0.00 0.00 0.00 95 1010.9
20260510101514 51 331 0.0 0.0 0.00 0.00 0.00 95 1010.6
20260510100110 52 331 0.0 0.0 0.00 0.00 0.00 95 1010.4
20260510094550 52 331 0.0 0.0 0.00 0.00 0.00 95 1010.4
20260510093017 53 331 0.0 0.0 0.00 0.00 0.00 94 1010.2
20260510091549 53 331 0.0 0.0 0.00 0.00 0.00 94 1010.1
20260510090040 54 331 0.0 0.0 0.00 0.00 0.00 94 1010.0
20260510084511 55 332 0.0 0.0 0.00 0.00 0.00 94 1010.0
20260510083056 55 331 0.0 0.0 0.00 0.00 0.00 95 1009.9
20260510081521 55 331 0.0 0.0 0.00 0.00 0.00 94 1009.8
20260510080110 54 331 0.0 0.0 0.00 0.00 0.00 93 1009.8
20260510074535 55 331 0.0 0.0 0.00 0.00 0.00 93 1009.6
20260510073013 55 331 0.0 0.0 0.00 0.00 0.00 93 1009.4
20260510071546 55 331 0.0 0.0 0.00 0.00 0.00 92 1009.3
20260510070034 56 331 0.0 0.0 0.00 0.00 0.00 92 1009.2
20260510064509 56 332 0.0 0.0 0.00 0.00 0.00 91 1009.2
20260510063051 57 331 0.0 0.0 0.00 0.00 0.00 91 1009.2
20260510061521 57 331 0.0 0.0 0.00 0.00 0.00 90 1009.2
20260510060002 58 331 0.0 0.0 0.00 0.00 0.00 90 1009.1
20260510054544 58 331 0.0 0.0 0.00 0.00 0.00 90 1009.1
20260510053027 58 331 0.0 0.0 0.00 0.00 0.00 89 1009.2
20260510051600 58 331 0.0 0.0 0.00 0.00 0.00 88 1009.0
20260510050042 59 331 0.0 0.0 0.00 0.00 0.00 87 1009.0
20260510044527 59 331 0.0 0.0 0.00 0.00 0.00 86 1009.1
20260510043110 59 331 0.0 0.0 0.00 0.00 0.00 86 1009.1
20260510041528 59 331 0.0 0.0 0.00 0.00 0.00 86 1009.0
20260510040011 59 331 0.0 0.0 0.00 0.00 0.00 85 1009.0
20260510034558 59 331 0.0 0.0 0.00 0.00 0.00 84 1008.9
20260510033043 59 332 0.0 0.0 0.00 0.00 0.00 84 1008.8
20260510031512 59 332 0.0 0.0 0.00 0.00 0.00 84 1008.6
20260510030100 59 332 0.0 0.0 0.00 0.00 0.00 83 1008.6
20260510024539 60 331 0.0 0.0 0.00 0.00 0.00 82 1008.4
20260510023018 60 331 0.0 0.0 0.00 0.00 0.00 81 1008.3
20260510021550 60 331 0.0 0.0 0.00 0.00 0.00 81 1008.3
20260510020036 61 331 0.0 0.0 0.00 0.00 0.00 80 1008.0
20260510014513 61 331 0.0 0.0 0.00 0.00 0.00 79 1007.9
20260510013057 62 332 0.0 0.0 0.00 0.00 0.00 78 1007.7
20260510011537 62 331 0.0 0.0 0.00 0.00 0.00 77 1007.5
20260510010007 63 331 0.0 0.0 0.00 0.00 0.00 75 1007.3
20260510004550 64 331 0.0 0.0 0.00 0.00 0.00 74 1007.2
20260510003032 66 331 0.0 0.0 0.00 0.00 0.00 72 1007.1
20260510001504 67 331 0.0 0.0 0.00 0.00 0.00 69 1006.9
20260509234544 69 331 0.0 0.0 0.00 0.00 0.00 66 1006.6
20260509233013 70 332 0.0 0.9 0.00 0.00 0.00 64 1006.5
20260509231545 70 331 0.0 0.0 0.00 0.00 0.00 63 1006.6
20260509230023 71 331 0.0 0.9 0.00 0.00 0.00 61 1006.6
20260509224505 72 331 0.0 0.9 0.00 0.00 0.00 61 1006.5
20260509223059 73 331 0.0 0.9 0.00 0.00 0.00 60 1006.5
20260509221521 73 332 0.0 0.9 0.00 0.00 0.00 58 1006.5
20260509220004 73 331 0.0 1.7 0.00 0.00 0.00 58 1006.5
20260509214548 74 155 0.0 0.9 0.00 0.00 0.00 62 1006.6
20260509213030 74 3 0.0 0.9 0.00 0.00 0.00 58 1006.6
20260509211501 74 25 0.0 3.5 0.00 0.00 0.00 58 1006.4
20260509210059 73 341 0.0 1.7 0.00 0.00 0.00 60 1006.3
20260509204539 73 320 0.0 1.7 0.00 0.00 0.00 59 1006.3
20260509203014 74 2 0.9 2.6 0.00 0.00 0.00 59 1006.3
20260509201546 74 336 0.0 3.5 0.00 0.00 0.00 60 1006.4
20260509200020 74 330 0.0 3.5 0.00 0.00 0.00 62 1006.6
20260509194503 72 335 0.0 1.7 0.00 0.00 0.00 66 1006.8
20260509193046 72 335 0.0 2.6 0.00 0.00 0.00 65 1007.0
20260509191521 71 234 0.0 1.7 0.00 0.00 0.00 68 1007.3
20260509190058 69 246 0.0 0.0 0.00 0.00 0.00 71 1007.7
20260509184553 70 246 0.0 0.9 0.00 0.00 0.00 67 1007.9
20260509183017 71 315 0.0 1.7 0.00 0.00 0.00 69 1008.0
20260509181605 69 255 0.0 0.9 0.00 0.00 0.00 68 1008.2
20260509180029 70 340 0.0 0.9 0.00 0.00 0.00 66 1008.2
20260509174509 70 291 0.9 4.3 0.00 0.00 0.00 65 1008.3
20260509173102 71 262 0.0 0.9 0.00 0.00 0.00 66 1008.4
20260509171518 71 265 0.0 2.6 0.00 0.00 0.00 66 1008.5
20260509170058 70 332 0.0 1.7 0.00 0.00 0.00 70 1008.8
20260509164534 69 224 0.0 0.9 0.00 0.00 0.00 68 1009.0
20260509163016 70 260 0.0 2.6 0.00 0.00 0.00 66 1008.9
20260509161545 70 278 0.0 3.5 0.00 0.00 0.00 65 1009.0
20260509160032 72 349 0.0 4.3 0.00 0.00 0.00 63 1009.0
20260509154508 72 275 0.9 7.0 0.00 0.00 0.00 62 1009.3